SCP
0 0 0 0 0 0 0 0 0 0 0 0 0 0 0 0 0 0 0 0 0 0 0 0 0 0 0 0 0 0 0 -0 0 -0 -0 0 0 0 0 0 0 0 0 1
0 0 0 0 0 0 0 0 0 0 0 0 0 0 0 0 0 0 1 1 1 1 1 0 0 0 0 1 1 0 0 0 0 0 0 0 0 0 0 0 1 1 1 1
0 0 0 0 0 0 0 0 0 0 0 0 0 0 0 0 0 1 1 1 1 1 1 1 0 0 0 0 1 1 0 0 1 1 1 1 1 1 1 1 1 2 2 1
0 0 0 0 0 0 0 0 0 0 0 0 0 0 0 0 0 0 0 1 1 1 1 2 1 1 1 1 1 1 1 1 1 1 1 1 2 1 1 1 2 2 1 1
0 0 0 0 0 0 0 0 0 0 0 0 0 0 0 0 0 0 0 1 1 1 2 2 3 2 1 1 1 1 1 1 1 1 2 2 2 2 2 2 1 1 1 0
0 0 0 0 0 0 0 0 0 0 0 0 0 0 0 0 0 0 0 0 1 2 2 3 3 3 2 1 2 1 2 2 2 2 2 3 3 3 3 1 1 1 0 0
0 0 0 0 0 0 0 0 0 0 0 0 0 0 0 0 0 0 0 0 0 2 2 2 4 3 4 3 2 2 3 3 3 3 3 4 4 3 2 1 1 0 0 0
0 0 0 0 0 0 0 0 0 0 0 0 0 0 0 0 0 0 0 0 0 0 2 2 3 4 5 4 3 5 5 5 4 4 4 3 2 2 1 1 0 0 0 0
0 0 0 0 0 0 0 0 0 0 0 0 0 0 0 0 0 0 -0 -0 -0 -0 0 0 1 1 3 6 7 6 6 7 5 4 3 2 2 2 1 1 0 0 0 0
0 0 0 0 0 0 0 0 0 0 0 0 0 0 0 0 0 0 0 0 0 -0 -0 -0 -0 -0 -0 3 6 6 6 5 3 2 3 2 1 1 1 0 0 0 0 0
0 0 0 0 0 0 0 0 0 0 0 0 0 0 0 0 0 0 0 0 0 -0 -0 -0 -0 -0 0 3 4 4 4 4 3 0 0 0 0 0 0 0 0 0 0 0
0 0 0 0 0 0 0 0 0 0 0 0 0 0 0 0 0 0 0 0 0 0 -0 0 0 1 1 2 5 3 3 4 2 0 0 0 0 0 0 0 0 0 0 0
0 0 0 0 0 0 0 0 0 0 0 0 0 0 0 0 0 0 0 0 0 0 0 -0 0 0 1 2 4 3 2 2 1 0 0 0 0 0 0 0 0 0 0 0
0 0 0 0 0 0 0 0 0 0 0 0 0 0 0 0 0 0 0 0 0 0 0 0 -0 0 1 2 2 1 1 0 0 0 0 0 0 0 0 0 0 0 0 0
0 0 0 0 0 0 0 0 0 0 0 0 0 0 0 0 0 0 0 0 0 0 0 -0 0 0 0 0 1 1 0 0 1 0 0 0 0 0 0 0 0 0 0 0
0 0 0 0 0 -0 0 0 0 0 0 0 0 0 0 0 0 0 0 0 0 0 0 0 0 0 0 0 0 0 1 0 0 0 0 0 0 0 0 0 0 0 0 0
0 0 0 0 0 0 0 0 0 0 0 0 0 0 0 0 0 0 0 0 0 0 0 0 0 0 0 0 0 0 0 0 0 0 0 0 0 0 0 0 0 0 0 0
0 0 0 0 0 0 0 0 0 0 0 0 0 0 0 0 0 0 0 0 0 0 0 0 0 0 0 0 0 0 0 0 0 0 0 0 0 0 0 0 0 0 0 0
0 -0 -0 0 -0 -0 -0 -0 -0 -0 0 0 0 0 0 0 0 0 0 0 0 0 0 0 0 0 0 0 0 0 0 0 0 0 0 0 0 0 0 0 0 0 0 0
-0 0 -0 -0 -0 -0 -0 -0 -0 -0 -0 0 0 0 0 0 0 0 0 0 0 0 0 0 0 0 0 0 0 0 0 0 0 0 0 0 0 0 0 0 0 0 0 0
-0 -0 -0 -0 0 0 0 0 -0 0 0 0 0 0 0 0 0 0 0 0 0 0 0 0 0 0 0 0 0 0 0 0 0 0 0 0 0 0 0 0 0 0 0 0
0 0 -0 -0 -0 -0 0 -0 0 -0 0 0 0 0 0 0 0 0 0 0 0 0 0 0 0 0 0 0 0 0 0 0 0 0 0 0 0 0 0 0 0 0 0 0
0 -0 0 -0 -0 -0 0 -0 -0 0 -0 -0 -0 0 0 0 0 0 0 0 0 0 0 0 0 0 0 0 0 0 0 0 0 0 0 0 0 0 0 0 0 0 0 0
0 0 0 -0 -0 -0 -0 -0 -0 -0 -0 -0 -0 0 0 0 0 0 0 0 0 0 0 0 0 0 0 0 0 0 0 0 0 0 0 0 0 0 0 0 0 0 0 0
-0 0 0 0 -0 0 -0 -0 0 0 0 -0 -0 -0 0 0 0 0 0 0 0 0 0 -0 0 -0 -0 -0 0 0 0 0 0 0 0 0 0 0 0 0 0 0 0 0
0 -0 -0 -0 -0 0 0 0 0 0 0 0 -0 -0 0 -0 -0 -0 -0 -0 0 0 0 -0 -0 -0 -0 -0 0 0 0 0 0 0 0 0 0 0 0 0 0 0 0 0
-0 -0 -0 -0 -0 0 0 0 0 -0 0 0 0 -0 -0 -0 -0 -0 -0 -0 -0 0 0 -0 -0 -0 -0 0 0 0 -0 -0 -0 0 0 0 0 0 0 0 0 0 0 0
Wind_Speed_500mb
27 22 22 26 29 29 31 28 32 33 34 33 25 23 31 31 35 35 31 26 20 25 38 40 44 47 46 44 48 51 58 57 61 59 54 49 44 39 38 38 34 32 28 28
30 27 28 35 34 34 36 35 39 39 41 18 11 19 23 27 27 29 29 29 29 24 30 41 44 49 44 51 53 53 62 65 58 56 54 52 45 36 36 36 36 34 32 31
34 30 29 34 36 44 42 39 35 33 23 19 17 15 18 19 23 27 31 34 36 31 25 31 40 40 44 46 52 57 58 62 64 59 57 55 47 39 32 31 37 35 36 33
27 26 39 29 25 28 31 31 25 15 15 10 16 24 5 16 27 31 37 41 42 37 27 22 25 33 41 41 50 51 53 52 55 63 61 55 47 41 32 30 29 35 30 27
24 25 33 38 20 18 16 18 10 10 5 12 20 20 19 20 30 32 38 41 44 44 29 23 19 22 31 40 45 49 48 49 51 49 47 45 41 36 31 34 32 28 25 20
23 29 31 3 16 12 12 28 20 9 8 15 24 17 12 42 42 39 40 41 45 43 35 23 20 19 25 35 42 41 42 34 36 37 40 36 33 35 33 30 25 18 19 19
27 29 25 7 7 6 21 5 17 15 17 20 16 22 41 41 40 38 42 45 44 39 36 31 24 21 24 28 36 37 36 37 38 32 28 34 37 35 33 27 24 25 20 17
26 32 39 17 5 17 16 19 23 22 18 19 23 30 33 34 34 37 40 41 39 38 36 31 26 21 23 26 26 37 45 42 43 43 33 33 35 34 32 29 26 19 16 15
17 9 12 9 12 12 23 23 18 25 28 28 31 33 34 37 39 37 39 41 39 38 38 30 27 22 24 29 38 37 45 51 48 42 37 32 33 32 28 23 15 15 17 9
26 27 34 22 29 32 28 24 34 39 39 38 36 36 40 40 40 39 39 41 41 40 39 37 26 25 21 34 40 43 49 53 48 47 43 34 25 28 18 16 16 17 7 7
30 38 50 55 49 43 45 46 47 49 52 48 46 49 46 47 43 40 39 39 41 40 41 40 34 31 26 44 45 51 54 54 55 52 49 48 45 44 35 28 25 16 16 11
22 36 35 44 53 51 55 58 57 55 54 54 55 58 55 53 46 42 42 41 43 43 43 43 38 33 32 42 50 61 62 58 52 53 52 53 47 41 28 20 19 15 12 10
37 45 52 55 57 58 62 51 42 43 47 51 54 56 58 58 52 49 47 44 45 46 43 39 39 36 32 33 64 71 71 64 60 65 64 64 54 44 40 37 24 16 13 10
30 35 45 48 52 52 50 54 57 56 54 53 54 56 53 52 51 48 49 48 46 45 44 41 44 38 34 38 72 81 74 74 75 72 66 59 54 52 44 37 30 24 19 11
34 35 46 54 56 57 57 59 60 59 56 55 52 52 49 46 44 44 44 42 41 41 42 43 46 40 33 39 81 87 79 73 66 64 62 55 49 41 36 30 27 22 14 8
47 51 54 55 56 55 54 54 55 57 56 56 56 52 45 40 38 35 35 34 35 35 36 38 39 38 36 47 72 85 83 77 74 67 57 53 46 39 35 30 23 18 14 11
51 53 50 62 58 56 55 54 58 59 55 57 60 55 49 43 39 35 32 34 31 34 39 40 37 36 43 52 64 78 87 84 75 68 43 43 49 42 34 27 19 15 10 8
45 49 52 58 63 55 58 64 62 66 60 56 55 54 50 45 40 34 31 31 34 37 38 36 36 38 48 52 55 43 38 56 54 58 54 51 43 35 29 25 19 17 10 12
45 67 61 63 59 67 73 70 71 66 61 53 52 52 47 44 38 31 29 28 37 35 34 29 25 36 47 48 44 40 50 45 38 47 47 39 32 29 28 23 20 18 16 14
67 56 49 56 56 62 71 70 61 63 52 50 46 43 41 38 34 33 28 34 35 33 29 37 33 44 36 38 34 26 26 32 33 32 31 31 29 26 29 26 17 17 18 18
60 57 53 54 66 70 48 45 41 33 35 37 34 34 33 31 31 31 29 34 36 35 37 41 34 47 48 47 34 34 31 25 25 26 26 27 26 21 22 18 15 14 16 15
69 58 54 62 68 43 31 25 19 12 12 21 29 32 30 29 32 32 31 34 28 32 32 43 34 41 39 39 41 35 26 26 25 28 27 27 27 22 20 21 21 20 18 17
56 46 55 75 57 41 35 38 31 24 18 21 29 30 32 31 34 41 38 32 26 41 34 44 44 46 42 30 32 34 32 35 31 29 28 24 25 27 22 21 25 24 24 24
49 50 33 42 40 46 52 45 36 36 33 28 21 20 20 24 27 33 26 32 47 59 61 48 55 48 42 36 33 31 33 32 32 31 32 32 31 30 30 26 27 27 26 23
28 37 41 40 45 47 43 46 41 39 36 45 34 12 22 16 21 28 38 67 69 67 67 58 52 49 42 35 38 39 38 38 39 39 37 36 36 34 32 27 24 24 23 21
25 28 34 42 39 34 34 39 40 37 45 48 36 17 18 39 54 79 74 65 52 48 61 56 51 46 46 44 43 41 39 45 38 32 31 29 28 29 28 26 24 19 17 15
22 25 28 31 36 42 44 40 45 43 55 43 49 52 67 75 73 72 60 50 51 55 63 49 47 48 47 44 39 36 38 32 32 31 29 27 23 23 23 21 19 16 14 11
Wind_Direction_500mb
268 281 280 276 277 270 260 259 271 289 296 300 326 320 319 313 323 328 331 330 313 262 229 221 212 211 208 210 208 210 218 220 220 222 226 229 235 250 251 248 242 241 245 270
263 265 268 266 263 262 261 266 272 274 277 315 329 310 314 318 327 334 337 335 328 311 255 236 227 217 218 209 211 210 219 219 219 222 226 226 231 257 250 237 226 235 243 261
263 269 274 267 258 251 254 262 273 278 309 346 333 340 320 342 348 354 351 348 338 322 292 252 239 233 224 219 212 216 220 220 220 220 224 230 246 247 231 213 217 224 242 265
267 276 255 266 302 313 287 281 292 282 272 316 319 310 193 21 6 359 355 348 343 331 312 273 252 234 219 214 215 217 218 219 220 225 230 237 238 231 217 201 205 227 246 263
251 243 256 268 258 242 271 266 186 270 249 327 334 303 191 19 0 348 347 350 349 347 323 302 264 242 221 211 212 211 212 215 216 215 214 218 216 210 197 198 216 229 242 263
239 250 261 73 46 26 277 257 33 355 315 321 328 275 89 346 341 334 335 340 346 349 349 322 294 257 227 215 210 210 201 202 202 203 204 204 196 194 194 210 210 216 234 258
232 251 254 348 12 321 252 6 347 336 321 315 315 320 311 322 322 322 325 331 336 338 336 338 313 271 242 221 213 202 193 200 198 189 191 185 190 197 203 191 203 219 238 247
237 259 260 35 227 264 5 332 323 317 311 312 310 309 311 316 322 326 327 328 330 330 328 330 322 292 255 231 222 195 200 191 191 176 175 189 194 191 184 192 202 222 225 241
298 274 80 30 10 338 319 309 321 320 307 305 305 306 305 308 314 317 323 327 328 321 320 316 309 307 262 225 209 188 189 180 178 177 179 189 177 182 188 171 192 199 223 241
278 259 278 317 296 298 302 301 298 295 292 290 289 295 300 299 301 304 309 316 318 320 313 308 303 295 263 231 210 200 188 187 182 176 167 171 163 150 159 169 175 168 157 177
274 281 287 282 289 297 301 294 292 292 286 282 283 285 288 289 288 290 298 305 308 308 309 302 302 285 256 237 223 208 187 178 172 174 187 184 166 161 170 182 160 161 156 174
275 297 293 288 289 289 288 293 292 285 280 280 278 278 279 278 278 283 289 296 300 299 302 304 291 284 279 243 229 194 182 177 175 183 176 177 179 163 165 182 197 197 211 221
298 293 289 290 286 283 282 282 287 290 288 285 281 279 275 273 272 278 279 287 290 291 289 292 288 279 279 255 208 207 197 192 188 177 173 174 172 171 164 177 196 206 224 245
294 296 289 286 288 295 292 287 287 285 283 282 282 285 281 272 271 271 271 279 284 283 284 290 286 279 269 257 211 214 208 194 183 178 175 174 176 179 179 181 183 187 202 217
294 291 289 290 288 285 285 285 283 280 279 279 281 279 280 272 272 273 274 273 275 273 276 286 282 279 278 262 215 210 200 190 183 175 178 183 176 171 166 160 166 174 171 206
301 296 297 298 288 286 289 292 288 283 277 274 274 275 276 275 272 272 270 270 269 274 273 281 279 272 280 255 205 201 193 182 180 182 178 172 171 170 168 174 180 189 175 182
308 303 303 301 307 290 285 290 291 286 282 274 268 269 269 268 269 269 271 268 259 269 268 278 277 274 257 219 185 182 182 178 178 172 172 175 175 177 188 187 192 191 197 260
305 304 305 300 297 286 291 289 287 282 275 270 266 259 262 261 261 265 270 264 250 265 278 267 265 256 220 201 193 198 175 178 170 174 168 174 183 188 193 190 196 190 209 210
320 313 304 306 298 299 297 292 289 280 270 264 261 252 254 256 255 257 263 248 246 247 262 260 243 176 164 168 163 161 156 161 149 167 177 184 188 194 198 188 173 188 188 220
333 327 319 311 314 309 302 292 285 274 261 253 251 245 248 247 244 247 248 242 242 237 253 227 211 195 194 188 189 175 167 171 177 175 170 181 179 177 180 171 174 178 196 190
331 326 329 328 323 324 314 307 300 275 245 237 233 236 238 238 236 231 229 236 233 237 241 211 200 199 195 188 182 158 138 151 162 176 174 177 172 165 163 169 172 180 179 180
349 343 342 333 335 342 342 332 331 319 259 236 242 243 241 236 225 221 217 226 235 237 221 208 204 208 171 137 142 142 178 175 157 156 153 152 155 157 158 163 164 163 165 166
359 345 354 353 13 19 27 30 25 12 344 298 263 252 245 239 226 216 209 213 210 188 187 158 138 139 140 148 149 153 157 150 140 140 141 139 138 137 145 145 148 149 146 141
351 356 7 13 6 12 17 16 12 15 8 351 321 246 239 215 205 214 217 210 186 155 141 142 151 152 136 137 140 144 143 141 143 143 146 139 134 137 136 135 139 138 138 129
357 355 9 18 18 14 14 15 18 16 8 9 357 298 209 212 206 194 168 140 142 139 142 145 144 147 152 150 149 148 143 138 136 134 135 138 138 134 136 138 144 143 130 131
354 2 7 15 13 15 10 13 23 25 31 37 55 79 154 151 139 134 134 137 151 150 144 148 143 140 146 144 140 134 134 131 123 131 136 136 139 136 140 147 144 135 135 136
359 8 8 11 13 19 16 23 26 51 47 48 67 86 111 120 128 130 133 134 132 142 139 139 144 142 142 137 133 134 130 131 137 131 131 129 132 135 140 136 136 145 143 163
Wind_Speed_850mb
27 22 22 26 29 29 31 28 32 33 34 33 25 23 31 31 35 35 31 26 20 25 38 40 44 47 46 44 48 51 58 57 61 59 54 49 44 39 38 38 34 32 28 28
30 27 28 35 34 34 36 35 39 39 41 18 11 19 23 27 27 29 29 29 29 24 30 41 44 49 44 51 53 53 62 65 58 56 54 52 45 36 36 36 36 34 32 31
34 30 29 34 36 44 42 39 35 33 23 19 17 15 18 19 23 27 31 34 36 31 25 31 40 40 44 46 52 57 58 62 64 59 57 55 47 39 32 31 37 35 36 33
27 26 39 29 25 28 31 31 25 15 15 10 16 24 5 16 27 31 37 41 42 37 27 22 25 33 41 41 50 51 53 52 55 63 61 55 47 41 32 30 29 35 30 27
24 25 33 38 20 18 16 18 10 10 5 12 20 20 19 20 30 32 38 41 44 44 29 23 19 22 31 40 45 49 48 49 51 49 47 45 41 36 31 34 32 28 25 20
23 29 31 3 16 12 12 28 20 9 8 15 24 17 12 42 42 39 40 41 45 43 35 23 20 19 25 35 42 41 42 34 36 37 40 36 33 35 33 30 25 18 19 19
27 29 25 7 7 6 21 5 17 15 17 20 16 22 41 41 40 38 42 45 44 39 36 31 24 21 24 28 36 37 36 37 38 32 28 34 37 35 33 27 24 25 20 17
26 32 39 17 5 17 16 19 23 22 18 19 23 30 33 34 34 37 40 41 39 38 36 31 26 21 23 26 26 37 45 42 43 43 33 33 35 34 32 29 26 19 16 15
17 9 12 9 12 12 23 23 18 25 28 28 31 33 34 37 39 37 39 41 39 38 38 30 27 22 24 29 38 37 45 51 48 42 37 32 33 32 28 23 15 15 17 9
26 27 34 22 29 32 28 24 34 39 39 38 36 36 40 40 40 39 39 41 41 40 39 37 26 25 21 34 40 43 49 53 48 47 43 34 25 28 18 16 16 17 7 7
30 38 50 55 49 43 45 46 47 49 52 48 46 49 46 47 43 40 39 39 41 40 41 40 34 31 26 44 45 51 54 54 55 52 49 48 45 44 35 28 25 16 16 11
22 36 35 44 53 51 55 58 57 55 54 54 55 58 55 53 46 42 42 41 43 43 43 43 38 33 32 42 50 61 62 58 52 53 52 53 47 41 28 20 19 15 12 10
37 45 52 55 57 58 62 51 42 43 47 51 54 56 58 58 52 49 47 44 45 46 43 39 39 36 32 33 64 71 71 64 60 65 64 64 54 44 40 37 24 16 13 10
30 35 45 48 52 52 50 54 57 56 54 53 54 56 53 52 51 48 49 48 46 45 44 41 44 38 34 38 72 81 74 74 75 72 66 59 54 52 44 37 30 24 19 11
34 35 46 54 56 57 57 59 60 59 56 55 52 52 49 46 44 44 44 42 41 41 42 43 46 40 33 39 81 87 79 73 66 64 62 55 49 41 36 30 27 22 14 8
47 51 54 55 56 55 54 54 55 57 56 56 56 52 45 40 38 35 35 34 35 35 36 38 39 38 36 47 72 85 83 77 74 67 57 53 46 39 35 30 23 18 14 11
51 53 50 62 58 56 55 54 58 59 55 57 60 55 49 43 39 35 32 34 31 34 39 40 37 36 43 52 64 78 87 84 75 68 43 43 49 42 34 27 19 15 10 8
45 49 52 58 63 55 58 64 62 66 60 56 55 54 50 45 40 34 31 31 34 37 38 36 36 38 48 52 55 43 38 56 54 58 54 51 43 35 29 25 19 17 10 12
45 67 61 63 59 67 73 70 71 66 61 53 52 52 47 44 38 31 29 28 37 35 34 29 25 36 47 48 44 40 50 45 38 47 47 39 32 29 28 23 20 18 16 14
67 56 49 56 56 62 71 70 61 63 52 50 46 43 41 38 34 33 28 34 35 33 29 37 33 44 36 38 34 26 26 32 33 32 31 31 29 26 29 26 17 17 18 18
60 57 53 54 66 70 48 45 41 33 35 37 34 34 33 31 31 31 29 34 36 35 37 41 34 47 48 47 34 34 31 25 25 26 26 27 26 21 22 18 15 14 16 15
69 58 54 62 68 43 31 25 19 12 12 21 29 32 30 29 32 32 31 34 28 32 32 43 34 41 39 39 41 35 26 26 25 28 27 27 27 22 20 21 21 20 18 17
56 46 55 75 57 41 35 38 31 24 18 21 29 30 32 31 34 41 38 32 26 41 34 44 44 46 42 30 32 34 32 35 31 29 28 24 25 27 22 21 25 24 24 24
49 50 33 42 40 46 52 45 36 36 33 28 21 20 20 24 27 33 26 32 47 59 61 48 55 48 42 36 33 31 33 32 32 31 32 32 31 30 30 26 27 27 26 23
28 37 41 40 45 47 43 46 41 39 36 45 34 12 22 16 21 28 38 67 69 67 67 58 52 49 42 35 38 39 38 38 39 39 37 36 36 34 32 27 24 24 23 21
25 28 34 42 39 34 34 39 40 37 45 48 36 17 18 39 54 79 74 65 52 48 61 56 51 46 46 44 43 41 39 45 38 32 31 29 28 29 28 26 24 19 17 15
22 25 28 31 36 42 44 40 45 43 55 43 49 52 67 75 73 72 60 50 51 55 63 49 47 48 47 44 39 36 38 32 32 31 29 27 23 23 23 21 19 16 14 11
Wind_Direction_850mb
268 281 280 276 277 270 260 259 271 289 296 300 326 320 319 313 323 328 331 330 313 262 229 221 212 211 208 210 208 210 218 220 220 222 226 229 235 250 251 248 242 241 245 270
263 265 268 266 263 262 261 266 272 274 277 315 329 310 314 318 327 334 337 335 328 311 255 236 227 217 218 209 211 210 219 219 219 222 226 226 231 257 250 237 226 235 243 261
263 269 274 267 258 251 254 262 273 278 309 346 333 340 320 342 348 354 351 348 338 322 292 252 239 233 224 219 212 216 220 220 220 220 224 230 246 247 231 213 217 224 242 265
267 276 255 266 302 313 287 281 292 282 272 316 319 310 193 21 6 359 355 348 343 331 312 273 252 234 219 214 215 217 218 219 220 225 230 237 238 231 217 201 205 227 246 263
251 243 256 268 258 242 271 266 186 270 249 327 334 303 191 19 0 348 347 350 349 347 323 302 264 242 221 211 212 211 212 215 216 215 214 218 216 210 197 198 216 229 242 263
239 250 261 73 46 26 277 257 33 355 315 321 328 275 89 346 341 334 335 340 346 349 349 322 294 257 227 215 210 210 201 202 202 203 204 204 196 194 194 210 210 216 234 258
232 251 254 348 12 321 252 6 347 336 321 315 315 320 311 322 322 322 325 331 336 338 336 338 313 271 242 221 213 202 193 200 198 189 191 185 190 197 203 191 203 219 238 247
237 259 260 35 227 264 5 332 323 317 311 312 310 309 311 316 322 326 327 328 330 330 328 330 322 292 255 231 222 195 200 191 191 176 175 189 194 191 184 192 202 222 225 241
298 274 80 30 10 338 319 309 321 320 307 305 305 306 305 308 314 317 323 327 328 321 320 316 309 307 262 225 209 188 189 180 178 177 179 189 177 182 188 171 192 199 223 241
278 259 278 317 296 298 302 301 298 295 292 290 289 295 300 299 301 304 309 316 318 320 313 308 303 295 263 231 210 200 188 187 182 176 167 171 163 150 159 169 175 168 157 177
274 281 287 282 289 297 301 294 292 292 286 282 283 285 288 289 288 290 298 305 308 308 309 302 302 285 256 237 223 208 187 178 172 174 187 184 166 161 170 182 160 161 156 174
275 297 293 288 289 289 288 293 292 285 280 280 278 278 279 278 278 283 289 296 300 299 302 304 291 284 279 243 229 194 182 177 175 183 176 177 179 163 165 182 197 197 211 221
298 293 289 290 286 283 282 282 287 290 288 285 281 279 275 273 272 278 279 287 290 291 289 292 288 279 279 255 208 207 197 192 188 177 173 174 172 171 164 177 196 206 224 245
294 296 289 286 288 295 292 287 287 285 283 282 282 285 281 272 271 271 271 279 284 283 284 290 286 279 269 257 211 214 208 194 183 178 175 174 176 179 179 181 183 187 202 217
294 291 289 290 288 285 285 285 283 280 279 279 281 279 280 272 272 273 274 273 275 273 276 286 282 279 278 262 215 210 200 190 183 175 178 183 176 171 166 160 166 174 171 206
301 296 297 298 288 286 289 292 288 283 277 274 274 275 276 275 272 272 270 270 269 274 273 281 279 272 280 255 205 201 193 182 180 182 178 172 171 170 168 174 180 189 175 182
308 303 303 301 307 290 285 290 291 286 282 274 268 269 269 268 269 269 271 268 259 269 268 278 277 274 257 219 185 182 182 178 178 172 172 175 175 177 188 187 192 191 197 260
305 304 305 300 297 286 291 289 287 282 275 270 266 259 262 261 261 265 270 264 250 265 278 267 265 256 220 201 193 198 175 178 170 174 168 174 183 188 193 190 196 190 209 210
320 313 304 306 298 299 297 292 289 280 270 264 261 252 254 256 255 257 263 248 246 247 262 260 243 176 164 168 163 161 156 161 149 167 177 184 188 194 198 188 173 188 188 220
333 327 319 311 314 309 302 292 285 274 261 253 251 245 248 247 244 247 248 242 242 237 253 227 211 195 194 188 189 175 167 171 177 175 170 181 179 177 180 171 174 178 196 190
331 326 329 328 323 324 314 307 300 275 245 237 233 236 238 238 236 231 229 236 233 237 241 211 200 199 195 188 182 158 138 151 162 176 174 177 172 165 163 169 172 180 179 180
349 343 342 333 335 342 342 332 331 319 259 236 242 243 241 236 225 221 217 226 235 237 221 208 204 208 171 137 142 142 178 175 157 156 153 152 155 157 158 163 164 163 165 166
359 345 354 353 13 19 27 30 25 12 344 298 263 252 245 239 226 216 209 213 210 188 187 158 138 139 140 148 149 153 157 150 140 140 141 139 138 137 145 145 148 149 146 141
351 356 7 13 6 12 17 16 12 15 8 351 321 246 239 215 205 214 217 210 186 155 141 142 151 152 136 137 140 144 143 141 143 143 146 139 134 137 136 135 139 138 138 129
357 355 9 18 18 14 14 15 18 16 8 9 357 298 209 212 206 194 168 140 142 139 142 145 144 147 152 150 149 148 143 138 136 134 135 138 138 134 136 138 144 143 130 131
354 2 7 15 13 15 10 13 23 25 31 37 55 79 154 151 139 134 134 137 151 150 144 148 143 140 146 144 140 134 134 131 123 131 136 136 139 136 140 147 144 135 135 136
359 8 8 11 13 19 16 23 26 51 47 48 67 86 111 120 128 130 133 134 132 142 139 139 144 142 142 137 133 134 130 131 137 131 131 129 132 135 140 136 136 145 143 163